49P/Arend-Rigaux (2011)

Japanese version
Home page
Updated on February 1, 2012

---------------------------------------------------------------------

* Profile

* Pictures

* Orbital Elements

Epoch 2011 Oct. 6.0 TT = JDT 2455840.5
T 2011 Oct. 19.07806 TT                                 MPC
q   1.4238283            (2000.0)            P               Q
n   0.14656303     Peri.  332.78990     -0.05100759     -0.95692683
a   3.5627588      Node   118.87643     +0.96536521     -0.12056405
e   0.6003579      Incl.   19.05020     +0.25586761     +0.26411240
P   6.72
From 1030 observations 1958 Jan. 29-2011 Nov. 6, mean residual 0".7.
     Nongravitational parameters A1 = +0.04, A2 = -0.0003.

* Finding Charts

* Magnitudes Graph

        H = 13.5  G = 0.15                       [    ,-100]  (             - 2011 July 11)
        m1 = 8.0 + 5 log d + 30.0 log r(t - 10)  [-100, 117]  (2011 July 11 - 2012 Feb. 13)
        H = 13.5  G = 0.15                       [ 117,    ]  (2012 Feb. 13 -             )

---------------------------------------------------------------------

The orbital elements are published on M.P.E.C. 2011-V31.
The charts are made with StellaNavigator Ver.8 (AstroArts).
The magnitudes graphs are made with Comet for Windows.

---------------------------------------------------------------------

Copyright(C) Seiichi Yoshida (comet@aerith.net). All rights reserved.